ARIANE 44LP DEB, 26794

Orbit data source: Space-Track

ARIANE 44LP DEB, 26794 is space debris in HEO originally from a launch on Sat, 02 Mar 1991 UTC launched from the French Guiana (FRGUI). Debris objects in space refer to the collection of defunct objects orbiting the Earth. Examples of debris include non-operational satellites, rocket bodies, and fragments generated from explosions, collisions, or faulty payload assembly.

Loading next visibility...
Identifier
26794, 1991-015L
Orbit
HEO
Country
Flag of FRFR
Related business
Manufacturer
Unknown
Mission
Spacecraft
Bus & Motor
Unknown
Mass
Unknown
Launch date (UTC)
1991-03-02 (35 years ago)
Launch vehicle
Unknown
Launch site
French Guiana (FRGUI)
Object type
Payload
Rocket body
Debris
Shape & HBR
Unknown shape, 1.0 m
Radar Cross Section
Medium (>0.1 m² and <1 m²)

Expand to show TLE details & history
Last TLE update: 2 days ago

TLE from 2 days ago
0 ARIANE 44LP DEB
1 26794U 91015L   25347.27728802 -.00000539  00000-0 -89306-2 0  9998
2 26794   7.6434 110.9550 6600173  50.2082 329.3637  2.89510646122767
Epoch: 2025-12-13T06:39Z
TLE epoch observation values (Epoch: 2025-12-13T06:39:17.684Z)
Latitude
-6.51908°
Longitude
-129.59543°
Altitude
8,575.299 km
Speed
5.843 km/s
True Right ascension
03h 29m 44s
True Declination
-6° 30' 02"
Sunlit
Object was in daylight at epoch
Visualization orbit readout
Latitude
Unknown
Longitude
Unknown
Altitude
Unknown
Speed
Unknown
Apparent Right ascension
Unknown
Apparent Declination
Unknown
Sunlit
N/A
Visualization observer readout
Local Sidereal Time
13:23:54
Azimuth
Unknown
Elevation
Unknown
Doppler factor
Unknown
Orbital elements
Apogee altitude
28,150.009 km
Perigee altitude
693.459 km
Semi-major axis
20,799.871 km
Eccentricity
0.66002
Inclination
7.6434°
RAAN
110.955°
Arg. of periapsis
50.2082°
True anomaly
250.90882°
Mean anomaly
329.3637°
Eccentric anomaly
295.12573°
Mean motion
0.72352 °/min
Orbital period
497.57 mins
BSTAR
-0.0089306
Loading maneuver chart data...
Computing Atmospheric mass density...

Documentation

Showing up to 5 results
|